Time,TemperatureF,DewpointF,PressureIn,WindDirection,WindDirectionDegrees,WindSpeedMPH,WindSpeedGustMPH,Humidity,HourlyPrecipIn,Conditions,Clouds,dailyrainin,SoftwareType,DateUTC
2013-09-01 00:00:00,70.9,70.0,29.87,WSW,247,1.4,9.0,98,0.00,,,0.00,Rainwise IP-100,2013-09-01 04:00:00,
2013-09-01 00:01:00,70.9,70.0,29.87,SW,225,9.8,9.8,98,0.00,,,0.00,Rainwise IP-100,2013-09-01 04:01:00,
2013-09-01 00:06:00,71.0,70.0,29.87,SW,225,5.8,10.0,98,0.00,,,0.00,Rainwise IP-100,2013-09-01 04:06:00,
2013-09-01 00:11:00,71.0,70.0,29.87,SSW,202,4.9,11.0,98,0.00,,,0.00,Rainwise IP-100,2013-09-01 04:11:00,
2013-09-01 00:16:00,71.0,70.0,29.87,SSW,202,1.4,12.0,98,0.00,,,0.00,Rainwise IP-100,2013-09-01 04:16:00,
2013-09-01 00:21:00,71.0,70.0,29.87,WNW,292,3.7,11.0,98,0.00,,,0.00,Rainwise IP-100,2013-09-01 04:21:00,
2013-09-01 00:26:00,71.0,70.0,29.86,SSW,202,1.2,11.0,98,0.00,,,0.00,Rainwise IP-100,2013-09-01 04:26:00,
2013-09-01 00:31:00,71.0,70.0,29.87,SW,225,7.5,11.0,98,0.00,,,0.00,Rainwise IP-100,2013-09-01 04:31:00,
2013-09-01 00:36:00,71.0,70.0,29.87,SSE,157,7.0,13.0,98,0.00,,,0.00,Rainwise IP-100,2013-09-01 04:36:00,
2013-09-01 00:41:00,71.1,70.0,29.87,WSW,247,4.0,11.0,99,0.00,,,0.00,Rainwise IP-100,2013-09-01 04:41:00,
2013-09-01 00:46:00,71.0,70.0,29.87,SSE,157,5.6,8.0,99,0.00,,,0.00,Rainwise IP-100,2013-09-01 04:46:00,
2013-09-01 00:51:00,71.0,70.0,29.86,SSW,202,1.6,13.0,99,0.00,,,0.00,Rainwise IP-100,2013-09-01 04:51:00,
2013-09-01 00:56:00,71.1,70.0,29.86,SW,225,5.6,12.0,99,0.00,,,0.00,Rainwise IP-100,2013-09-01 04:56:00,
2013-09-01 01:01:00,71.1,70.0,29.86,SSW,202,2.3,13.0,99,0.00,,,0.00,Rainwise IP-100,2013-09-01 05:01:00,
2013-09-01 01:06:00,71.2,71.0,29.86,SW,225,8.2,12.0,99,0.00,,,0.00,Rainwise IP-100,2013-09-01 05:06:00,
2013-09-01 01:11:00,71.2,71.0,29.86,SSW,202,0.0,13.0,99,0.00,,,0.00,Rainwise IP-100,2013-09-01 05:11:00,
2013-09-01 01:16:00,71.2,71.0,29.86,WSW,247,4.7,11.0,99,0.00,,,0.00,Rainwise IP-100,2013-09-01 05:16:00,
2013-09-01 01:21:00,71.2,71.0,29.86,WSW,247,6.5,12.0,99,0.00,,,0.00,Rainwise IP-100,2013-09-01 05:21:00,
2013-09-01 01:26:00,71.2,71.0,29.86,SSW,202,7.5,13.0,99,0.00,,,0.00,Rainwise IP-100,2013-09-01 05:26:00,
2013-09-01 01:31:00,71.2,71.0,29.85,WSW,247,3.7,9.0,99,0.00,,,0.00,Rainwise IP-100,2013-09-01 05:31:00,
2013-09-01 01:36:00,71.2,71.0,29.85,WSW,247,3.7,13.0,99,0.00,,,0.00,Rainwise IP-100,2013-09-01 05:36:00,
2013-09-01 01:41:00,71.3,71.0,29.84,SSW,202,9.3,11.0,99,0.00,,,0.00,Rainwise IP-100,2013-09-01 05:41:00,
2013-09-01 01:46:00,71.4,71.0,29.85,WSW,247,3.3,9.0,99,0.00,,,0.00,Rainwise IP-100,2013-09-01 05:46:00,
2013-09-01 01:51:00,71.4,71.0,29.84,SSW,202,6.8,8.0,99,0.00,,,0.00,Rainwise IP-100,2013-09-01 05:51:00,
2013-09-01 01:56:00,71.4,71.0,29.85,SSE,157,2.6,12.0,99,0.00,,,0.00,Rainwise IP-100,2013-09-01 05:56:00,
2013-09-01 02:01:00,71.4,71.0,29.85,South,180,7.7,9.0,99,0.00,,,0.00,Rainwise IP-100,2013-09-01 06:01:00,
2013-09-01 02:06:00,71.4,71.0,29.85,WSW,247,6.3,11.0,99,0.00,,,0.00,Rainwise IP-100,2013-09-01 06:06:00,
2013-09-01 02:11:00,71.3,71.0,29.84,SW,225,4.0,14.0,99,0.00,,,0.00,Rainwise IP-100,2013-09-01 06:11:00,
2013-09-01 02:16:00,71.3,71.0,29.84,SW,225,6.1,9.0,99,0.06,,,0.01,Rainwise IP-100,2013-09-01 06:16:00,
2013-09-01 02:21:00,71.3,71.0,29.84,WSW,247,7.5,17.0,99,0.12,,,0.02,Rainwise IP-100,2013-09-01 06:21:00,
2013-09-01 02:26:00,71.5,71.0,29.84,WSW,247,11.2,19.0,99,0.06,,,0.02,Rainwise IP-100,2013-09-01 06:26:00,
2013-09-01 02:31:00,71.7,71.0,29.84,SSW,202,3.5,22.0,99,0.00,,,0.02,Rainwise IP-100,2013-09-01 06:31:00,
2013-09-01 02:36:00,71.8,71.0,29.84,WSW,247,4.7,14.0,99,0.00,,,0.02,Rainwise IP-100,2013-09-01 06:36:00,
2013-09-01 02:41:00,71.7,71.0,29.84,WSW,247,2.8,10.0,99,0.00,,,0.02,Rainwise IP-100,2013-09-01 06:41:00,
2013-09-01 02:46:00,71.6,71.0,29.84,SW,225,7.2,10.0,99,0.00,,,0.02,Rainwise IP-100,2013-09-01 06:46:00,
2013-09-01 02:51:00,71.4,71.0,29.84,SSW,202,1.6,11.0,99,0.00,,,0.02,Rainwise IP-100,2013-09-01 06:51:00,
2013-09-01 02:56:00,71.3,71.0,29.84,SW,225,5.1,12.0,99,0.00,,,0.02,Rainwise IP-100,2013-09-01 06:56:00,
2013-09-01 03:01:00,71.1,70.0,29.85,SSW,202,1.9,12.0,99,0.00,,,0.02,Rainwise IP-100,2013-09-01 07:01:00,
2013-09-01 03:06:00,71.0,70.0,29.85,WSW,247,3.3,11.0,99,0.06,,,0.03,Rainwise IP-100,2013-09-01 07:06:00,
2013-09-01 03:11:00,70.9,70.0,29.84,SSW,202,4.0,11.0,99,0.06,,,0.03,Rainwise IP-100,2013-09-01 07:11:00,
2013-09-01 03:16:00,70.8,70.0,29.84,West,270,2.6,10.0,99,0.00,,,0.03,Rainwise IP-100,2013-09-01 07:16:00,
2013-09-01 03:21:00,70.7,70.0,29.84,WSW,247,4.9,9.0,99,0.00,,,0.03,Rainwise IP-100,2013-09-01 07:21:00,
2013-09-01 03:26:00,70.7,70.0,29.85,WSW,247,1.4,9.0,99,0.00,,,0.03,Rainwise IP-100,2013-09-01 07:26:00,
2013-09-01 03:31:00,70.7,70.0,29.84,SW,225,5.6,10.0,99,0.00,,,0.03,Rainwise IP-100,2013-09-01 07:31:00,
2013-09-01 03:36:00,70.7,70.0,29.85,WSW,247,1.6,7.0,99,0.00,,,0.03,Rainwise IP-100,2013-09-01 07:36:00,
2013-09-01 03:41:00,70.7,70.0,29.85,SSW,202,2.3,7.0,100,0.00,,,0.03,Rainwise IP-100,2013-09-01 07:41:00,
2013-09-01 03:46:00,70.7,70.0,29.85,SW,225,4.4,10.0,100,0.00,,,0.03,Rainwise IP-100,2013-09-01 07:46:00,
2013-09-01 03:51:00,70.7,70.0,29.85,WSW,247,2.8,9.0,100,0.00,,,0.03,Rainwise IP-100,2013-09-01 07:51:00,
2013-09-01 03:56:00,70.7,70.0,29.85,SSW,202,2.3,8.0,100,0.00,,,0.03,Rainwise IP-100,2013-09-01 07:56:00,
2013-09-01 04:01:00,70.7,70.0,29.85,SSW,202,4.2,9.0,100,0.00,,,0.03,Rainwise IP-100,2013-09-01 08:01:00,
2013-09-01 04:06:00,70.8,70.0,29.85,SW,225,8.6,11.0,100,0.00,,,0.03,Rainwise IP-100,2013-09-01 08:06:00,
2013-09-01 04:11:00,70.8,70.0,29.86,SW,225,2.3,11.0,100,0.00,,,0.03,Rainwise IP-100,2013-09-01 08:11:00,
2013-09-01 04:16:00,70.8,70.0,29.86,WSW,247,6.5,13.0,100,0.00,,,0.03,Rainwise IP-100,2013-09-01 08:16:00,
2013-09-01 04:21:00,70.8,70.0,29.86,SW,225,1.4,15.0,100,0.00,,,0.03,Rainwise IP-100,2013-09-01 08:21:00,
2013-09-01 04:26:00,70.8,70.0,29.85,WSW,247,9.6,9.6,100,0.00,,,0.03,Rainwise IP-100,2013-09-01 08:26:00,
2013-09-01 04:31:00,70.8,70.0,29.85,SW,225,7.0,10.0,100,0.00,,,0.03,Rainwise IP-100,2013-09-01 08:31:00,
2013-09-01 04:36:00,70.8,70.0,29.85,WSW,247,3.3,10.0,100,0.00,,,0.03,Rainwise IP-100,2013-09-01 08:36:00,
2013-09-01 04:41:00,70.7,70.0,29.84,SSW,202,2.6,9.0,100,0.00,,,0.03,Rainwise IP-100,2013-09-01 08:41:00,
2013-09-01 04:46:00,70.7,70.0,29.85,SW,225,4.0,8.0,100,0.00,,,0.03,Rainwise IP-100,2013-09-01 08:46:00,
2013-09-01 04:51:00,70.7,70.0,29.85,WSW,247,2.1,9.0,100,0.00,,,0.03,Rainwise IP-100,2013-09-01 08:51:00,
2013-09-01 04:56:00,70.7,70.0,29.86,West,270,4.0,7.0,100,0.00,,,0.03,Rainwise IP-100,2013-09-01 08:56:00,
2013-09-01 05:01:00,70.7,70.0,29.85,WSW,247,4.0,10.0,100,0.00,,,0.03,Rainwise IP-100,2013-09-01 09:01:00,
2013-09-01 05:06:00,70.7,70.0,29.86,West,270,6.8,10.0,100,0.00,,,0.03,Rainwise IP-100,2013-09-01 09:06:00,
2013-09-01 05:11:00,70.7,70.0,29.86,SW,225,2.3,7.0,100,0.00,,,0.03,Rainwise IP-100,2013-09-01 09:11:00,
2013-09-01 05:16:00,70.7,70.0,29.87,SW,225,1.6,13.0,100,0.00,,,0.03,Rainwise IP-100,2013-09-01 09:16:00,
2013-09-01 05:21:00,70.8,70.0,29.87,SW,225,5.4,9.0,100,0.00,,,0.03,Rainwise IP-100,2013-09-01 09:21:00,
2013-09-01 05:26:00,70.8,70.0,29.87,West,270,2.1,13.0,100,0.00,,,0.03,Rainwise IP-100,2013-09-01 09:26:00,
2013-09-01 05:31:00,70.8,70.0,29.87,WSW,247,10.0,11.0,100,0.00,,,0.03,Rainwise IP-100,2013-09-01 09:31:00,
2013-09-01 05:36:00,70.9,71.0,29.88,West,270,3.3,12.0,100,0.00,,,0.03,Rainwise IP-100,2013-09-01 09:36:00,
2013-09-01 05:41:00,70.9,71.0,29.89,WSW,247,1.9,12.0,100,0.00,,,0.03,Rainwise IP-100,2013-09-01 09:41:00,
2013-09-01 05:46:00,70.9,71.0,29.89,WSW,247,3.3,11.0,100,0.00,,,0.03,Rainwise IP-100,2013-09-01 09:46:00,
2013-09-01 05:51:00,70.8,70.0,29.89,WSW,247,1.9,6.0,100,0.00,,,0.03,Rainwise IP-100,2013-09-01 09:51:00,
2013-09-01 05:56:00,70.7,70.0,29.88,SSW,202,1.2,8.0,100,0.00,,,0.03,Rainwise IP-100,2013-09-01 09:56:00,
2013-09-01 06:01:00,70.7,70.0,29.88,WSW,247,0.0,4.0,100,0.00,,,0.03,Rainwise IP-100,2013-09-01 10:01:00,
2013-09-01 06:06:00,70.7,70.0,29.87,SW,225,0.0,1.0,100,0.00,,,0.03,Rainwise IP-100,2013-09-01 10:06:00,
2013-09-01 06:11:00,70.7,70.0,29.88,SW,225,1.4,1.4,100,0.00,,,0.03,Rainwise IP-100,2013-09-01 10:11:00,
2013-09-01 06:16:00,70.7,70.0,29.88,SW,225,1.2,2.0,100,0.06,,,0.04,Rainwise IP-100,2013-09-01 10:16:00,
2013-09-01 06:21:00,70.7,70.0,29.88,South,180,3.5,3.5,100,0.06,,,0.04,Rainwise IP-100,2013-09-01 10:21:00,
2013-09-01 06:26:00,70.7,70.0,29.88,SSW,202,3.3,5.0,100,0.00,,,0.04,Rainwise IP-100,2013-09-01 10:26:00,
2013-09-01 06:31:00,70.8,70.0,29.88,SSW,202,3.5,9.0,100,0.06,,,0.05,Rainwise IP-100,2013-09-01 10:31:00,
2013-09-01 06:36:00,70.8,70.0,29.88,SSW,202,2.1,6.0,100,0.12,,,0.06,Rainwise IP-100,2013-09-01 10:36:00,
2013-09-01 06:41:00,70.9,71.0,29.87,SSW,202,1.2,6.0,100,0.18,,,0.08,Rainwise IP-100,2013-09-01 10:41:00,
2013-09-01 06:46:00,70.9,71.0,29.87,SSW,202,1.6,7.0,100,0.18,,,0.09,Rainwise IP-100,2013-09-01 10:46:00,
2013-09-01 06:51:00,71.0,71.0,29.87,SSW,202,1.6,10.0,100,0.06,,,0.09,Rainwise IP-100,2013-09-01 10:51:00,
2013-09-01 06:56:00,71.1,71.0,29.88,SW,225,2.8,9.0,100,0.00,,,0.09,Rainwise IP-100,2013-09-01 10:56:00,
2013-09-01 07:01:00,71.2,71.0,29.87,WSW,247,3.0,7.0,100,0.00,,,0.09,Rainwise IP-100,2013-09-01 11:01:00,
2013-09-01 07:06:00,71.3,71.0,29.89,South,180,1.9,7.0,100,0.00,,,0.09,Rainwise IP-100,2013-09-01 11:06:00,
2013-09-01 07:11:00,71.5,71.0,29.89,WSW,247,3.3,5.0,100,0.00,,,0.09,Rainwise IP-100,2013-09-01 11:11:00,
2013-09-01 07:16:00,71.5,71.0,29.89,SW,225,2.3,7.0,100,0.00,,,0.09,Rainwise IP-100,2013-09-01 11:16:00,
2013-09-01 07:21:00,71.5,71.0,29.89,SSW,202,3.5,7.0,100,0.00,,,0.09,Rainwise IP-100,2013-09-01 11:21:00,
2013-09-01 07:26:00,71.5,71.0,29.89,SW,225,1.4,6.0,100,0.00,,,0.09,Rainwise IP-100,2013-09-01 11:26:00,
2013-09-01 07:31:00,71.5,71.0,29.89,WSW,247,1.9,6.0,100,0.00,,,0.09,Rainwise IP-100,2013-09-01 11:31:00,
2013-09-01 07:36:00,71.5,71.0,29.89,WSW,247,2.8,7.0,100,0.00,,,0.09,Rainwise IP-100,2013-09-01 11:36:00,
2013-09-01 07:41:00,71.5,71.0,29.89,SSW,202,1.6,8.0,100,0.00,,,0.09,Rainwise IP-100,2013-09-01 11:41:00,
2013-09-01 07:46:00,71.6,71.0,29.89,WSW,247,5.4,7.0,100,0.00,,,0.09,Rainwise IP-100,2013-09-01 11:46:00,
2013-09-01 07:51:00,71.6,71.0,29.88,SSE,157,8.4,8.4,100,0.00,,,0.09,Rainwise IP-100,2013-09-01 11:51:00,
2013-09-01 07:56:00,71.6,71.0,29.89,WSW,247,6.1,9.0,100,0.00,,,0.09,Rainwise IP-100,2013-09-01 11:56:00,
2013-09-01 08:01:00,71.6,71.0,29.89,WSW,247,6.3,7.0,100,0.00,,,0.09,Rainwise IP-100,2013-09-01 12:01:00,
2013-09-01 08:06:00,71.7,71.0,29.89,SW,225,4.0,8.0,100,0.00,,,0.09,Rainwise IP-100,2013-09-01 12:06:00,
2013-09-01 08:11:00,71.8,71.0,29.90,SSW,202,5.8,8.0,100,0.00,,,0.09,Rainwise IP-100,2013-09-01 12:11:00,
2013-09-01 08:16:00,71.9,72.0,29.90,SSW,202,3.5,6.0,100,0.00,,,0.09,Rainwise IP-100,2013-09-01 12:16:00,
2013-09-01 08:21:00,71.9,72.0,29.90,South,180,1.4,6.0,100,0.00,,,0.09,Rainwise IP-100,2013-09-01 12:21:00,
2013-09-01 08:26:00,71.9,72.0,29.89,WSW,247,6.1,9.0,100,0.00,,,0.09,Rainwise IP-100,2013-09-01 12:26:00,
2013-09-01 08:31:00,71.9,72.0,29.89,WSW,247,4.4,8.0,100,0.00,,,0.09,Rainwise IP-100,2013-09-01 12:31:00,
2013-09-01 08:36:00,71.9,72.0,29.89,SW,225,1.9,9.0,100,0.00,,,0.09,Rainwise IP-100,2013-09-01 12:36:00,
2013-09-01 08:41:00,72.1,72.0,29.89,SSE,157,7.0,8.0,100,0.00,,,0.09,Rainwise IP-100,2013-09-01 12:41:00,
2013-09-01 08:46:00,72.3,72.0,29.89,SSW,202,2.8,8.0,100,0.00,,,0.09,Rainwise IP-100,2013-09-01 12:46:00,
2013-09-01 08:51:00,72.6,72.0,29.89,SSW,202,2.3,8.0,100,0.00,,,0.09,Rainwise IP-100,2013-09-01 12:51:00,
2013-09-01 08:56:00,72.7,72.0,29.89,SSW,202,6.3,6.3,100,0.00,,,0.09,Rainwise IP-100,2013-09-01 12:56:00,
2013-09-01 09:01:00,72.8,72.0,29.89,South,180,6.1,10.0,100,0.00,,,0.09,Rainwise IP-100,2013-09-01 13:01:00,
2013-09-01 09:06:00,72.8,72.0,29.89,SSW,202,4.9,8.0,100,0.00,,,0.09,Rainwise IP-100,2013-09-01 13:06:00,
2013-09-01 09:11:00,72.7,72.0,29.89,SW,225,2.3,8.0,100,0.00,,,0.09,Rainwise IP-100,2013-09-01 13:11:00,
2013-09-01 09:16:00,72.6,72.0,29.89,WSW,247,9.3,9.3,100,0.00,,,0.09,Rainwise IP-100,2013-09-01 13:16:00,
2013-09-01 09:21:00,72.6,72.0,29.89,SSW,202,3.3,12.0,100,0.00,,,0.09,Rainwise IP-100,2013-09-01 13:21:00,
2013-09-01 09:26:00,72.6,72.0,29.89,SW,225,6.3,10.0,100,0.00,,,0.09,Rainwise IP-100,2013-09-01 13:26:00,
2013-09-01 09:31:00,72.5,72.0,29.89,SW,225,2.6,10.0,100,0.00,,,0.09,Rainwise IP-100,2013-09-01 13:31:00,
2013-09-01 09:36:00,72.4,72.0,29.89,SSW,202,10.0,12.0,100,0.00,,,0.09,Rainwise IP-100,2013-09-01 13:36:00,
2013-09-01 09:41:00,72.4,72.0,29.89,West,270,7.0,12.0,100,0.00,,,0.09,Rainwise IP-100,2013-09-01 13:41:00,
2013-09-01 09:46:00,72.5,72.0,29.89,WSW,247,3.3,10.0,100,0.00,,,0.09,Rainwise IP-100,2013-09-01 13:46:00,
2013-09-01 09:51:00,72.5,72.0,29.89,WSW,247,3.3,10.0,100,0.00,,,0.09,Rainwise IP-100,2013-09-01 13:51:00,
2013-09-01 09:56:00,72.5,72.0,29.89,SSW,202,0.0,10.0,100,0.00,,,0.09,Rainwise IP-100,2013-09-01 13:56:00,
2013-09-01 10:01:00,72.6,72.0,29.89,SSW,202,1.6,10.0,100,0.00,,,0.09,Rainwise IP-100,2013-09-01 14:01:00,
2013-09-01 10:06:00,72.6,72.0,29.89,WSW,247,3.5,8.0,100,0.06,,,0.10,Rainwise IP-100,2013-09-01 14:06:00,
2013-09-01 10:11:00,72.6,72.0,29.89,SSW,202,4.9,9.0,100,0.06,,,0.10,Rainwise IP-100,2013-09-01 14:11:00,
2013-09-01 10:16:00,72.6,72.0,29.89,SSE,157,3.0,13.0,100,0.06,,,0.11,Rainwise IP-100,2013-09-01 14:16:00,
2013-09-01 10:21:00,72.7,72.0,29.89,SSW,202,7.2,9.0,100,0.06,,,0.11,Rainwise IP-100,2013-09-01 14:21:00,
2013-09-01 10:26:00,72.7,72.0,29.90,WSW,247,3.7,12.0,100,0.00,,,0.11,Rainwise IP-100,2013-09-01 14:26:00,
2013-09-01 10:31:00,72.8,72.0,29.90,WSW,247,2.3,11.0,100,0.00,,,0.11,Rainwise IP-100,2013-09-01 14:31:00,
2013-09-01 10:36:00,72.7,72.0,29.91,WSW,247,1.4,9.0,100,0.00,,,0.11,Rainwise IP-100,2013-09-01 14:36:00,
2013-09-01 10:41:00,72.6,72.0,29.90,SW,225,4.7,5.0,100,0.00,,,0.11,Rainwise IP-100,2013-09-01 14:41:00,
2013-09-01 10:46:00,72.7,72.0,29.90,SSE,157,2.1,12.0,100,0.06,,,0.12,Rainwise IP-100,2013-09-01 14:46:00,
2013-09-01 10:51:00,72.8,72.0,29.90,South,180,2.1,8.0,100,0.06,,,0.12,Rainwise IP-100,2013-09-01 14:51:00,
2013-09-01 10:56:00,72.9,73.0,29.90,SW,225,1.6,9.0,100,0.00,,,0.12,Rainwise IP-100,2013-09-01 14:56:00,
2013-09-01 11:01:00,73.0,73.0,29.90,SW,225,4.9,9.0,100,0.00,,,0.12,Rainwise IP-100,2013-09-01 15:01:00,
2013-09-01 11:06:00,73.0,73.0,29.90,SW,225,7.5,10.0,100,0.00,,,0.12,Rainwise IP-100,2013-09-01 15:06:00,
2013-09-01 11:11:00,73.0,73.0,29.90,SW,225,1.9,8.0,100,0.00,,,0.12,Rainwise IP-100,2013-09-01 15:11:00,
2013-09-01 11:16:00,72.9,73.0,29.90,West,270,5.4,7.0,100,0.00,,,0.12,Rainwise IP-100,2013-09-01 15:16:00,
2013-09-01 11:21:00,72.9,73.0,29.90,SW,225,5.6,8.0,100,0.00,,,0.12,Rainwise IP-100,2013-09-01 15:21:00,
2013-09-01 11:26:00,73.1,73.0,29.90,WSW,247,5.6,8.0,100,0.00,,,0.12,Rainwise IP-100,2013-09-01 15:26:00,
2013-09-01 11:31:00,73.2,73.0,29.90,WSW,247,8.9,8.9,100,0.00,,,0.12,Rainwise IP-100,2013-09-01 15:31:00,
2013-09-01 11:36:00,73.4,73.0,29.89,WSW,247,8.2,8.2,100,0.00,,,0.12,Rainwise IP-100,2013-09-01 15:36:00,
2013-09-01 11:41:00,73.4,73.0,29.90,WSW,247,4.2,8.0,100,0.00,,,0.12,Rainwise IP-100,2013-09-01 15:41:00,
2013-09-01 11:46:00,73.5,73.0,29.90,SW,225,7.5,10.0,100,0.00,,,0.12,Rainwise IP-100,2013-09-01 15:46:00,
2013-09-01 11:51:00,73.6,73.0,29.90,SW,225,4.2,9.0,100,0.00,,,0.12,Rainwise IP-100,2013-09-01 15:51:00,
2013-09-01 11:56:00,73.5,73.0,29.90,WSW,247,5.4,9.0,100,0.00,,,0.12,Rainwise IP-100,2013-09-01 15:56:00,
2013-09-01 12:01:00,73.5,73.0,29.91,SW,225,4.9,8.0,100,0.00,,,0.12,Rainwise IP-100,2013-09-01 16:01:00,
2013-09-01 12:06:00,73.7,73.0,29.90,SW,225,3.3,6.0,100,0.00,,,0.12,Rainwise IP-100,2013-09-01 16:06:00,
2013-09-01 12:11:00,73.7,73.0,29.90,SW,225,2.8,11.0,100,0.00,,,0.12,Rainwise IP-100,2013-09-01 16:11:00,
2013-09-01 12:16:00,73.8,73.0,29.89,SW,225,6.1,12.0,100,0.00,,,0.12,Rainwise IP-100,2013-09-01 16:16:00,
2013-09-01 12:21:00,74.0,74.0,29.89,WSW,247,2.3,9.0,100,0.00,,,0.12,Rainwise IP-100,2013-09-01 16:21:00,
2013-09-01 12:26:00,74.2,74.0,29.89,South,180,5.6,8.0,100,0.00,,,0.12,Rainwise IP-100,2013-09-01 16:26:00,
2013-09-01 12:31:00,74.3,74.0,29.89,SSW,202,1.6,8.0,100,0.00,,,0.12,Rainwise IP-100,2013-09-01 16:31:00,
2013-09-01 12:36:00,74.4,74.0,29.89,SSE,157,1.9,11.0,100,0.00,,,0.12,Rainwise IP-100,2013-09-01 16:36:00,
2013-09-01 12:41:00,74.6,74.0,29.89,SSW,202,9.6,12.0,99,0.00,,,0.12,Rainwise IP-100,2013-09-01 16:41:00,
2013-09-01 12:46:00,74.8,74.0,29.89,WSW,247,2.6,12.0,99,0.00,,,0.12,Rainwise IP-100,2013-09-01 16:46:00,
2013-09-01 12:51:00,75.0,74.0,29.89,WSW,247,3.7,9.0,99,0.00,,,0.12,Rainwise IP-100,2013-09-01 16:51:00,
2013-09-01 12:56:00,75.0,74.0,29.89,WSW,247,7.0,10.0,98,0.00,,,0.12,Rainwise IP-100,2013-09-01 16:56:00,
2013-09-01 13:01:00,75.0,74.0,29.88,South,180,6.5,11.0,98,0.00,,,0.12,Rainwise IP-100,2013-09-01 17:01:00,
2013-09-01 13:06:00,74.9,74.0,29.88,SSE,157,3.3,9.0,98,0.00,,,0.12,Rainwise IP-100,2013-09-01 17:06:00,
2013-09-01 13:11:00,74.9,74.0,29.89,WSW,247,2.8,8.0,98,0.00,,,0.12,Rainwise IP-100,2013-09-01 17:11:00,
2013-09-01 13:16:00,75.1,74.0,29.89,SW,225,3.5,11.0,98,0.00,,,0.12,Rainwise IP-100,2013-09-01 17:16:00,
2013-09-01 13:21:00,75.3,74.0,29.88,SSE,157,5.1,14.0,98,0.00,,,0.12,Rainwise IP-100,2013-09-01 17:21:00,
2013-09-01 13:26:00,75.5,74.0,29.88,SSW,202,4.4,14.0,98,0.00,,,0.12,Rainwise IP-100,2013-09-01 17:26:00,
2013-09-01 13:31:00,75.8,74.0,29.88,SSW,202,6.5,9.0,97,0.00,,,0.12,Rainwise IP-100,2013-09-01 17:31:00,
2013-09-01 13:36:00,75.8,74.0,29.88,WSW,247,4.7,11.0,97,0.00,,,0.12,Rainwise IP-100,2013-09-01 17:36:00,
2013-09-01 13:41:00,75.8,74.0,29.88,SSE,157,4.0,11.0,97,0.00,,,0.12,Rainwise IP-100,2013-09-01 17:41:00,
2013-09-01 13:46:00,75.9,74.0,29.88,SSW,202,2.8,13.0,97,0.00,,,0.12,Rainwise IP-100,2013-09-01 17:46:00,
2013-09-01 13:51:00,76.0,74.0,29.88,South,180,3.3,10.0,96,0.00,,,0.12,Rainwise IP-100,2013-09-01 17:51:00,
2013-09-01 13:56:00,76.0,74.0,29.88,SSW,202,9.1,12.0,96,0.00,,,0.12,Rainwise IP-100,2013-09-01 17:56:00,
2013-09-01 14:01:00,76.0,74.0,29.88,SW,225,3.3,9.0,96,0.00,,,0.00,Rainwise IP-100,2013-09-01 18:01:00,
2013-09-01 14:06:00,76.1,74.0,29.88,SW,225,1.2,11.0,96,0.00,,,0.00,Rainwise IP-100,2013-09-01 18:06:00,
2013-09-01 14:11:00,76.1,74.0,29.88,South,180,5.1,10.0,95,0.00,,,0.00,Rainwise IP-100,2013-09-01 18:11:00,
2013-09-01 14:16:00,76.1,74.0,29.88,SW,225,3.3,11.0,95,0.00,,,0.00,Rainwise IP-100,2013-09-01 18:16:00,
2013-09-01 14:21:00,76.1,74.0,29.88,SSW,202,2.6,13.0,95,0.00,,,0.00,Rainwise IP-100,2013-09-01 18:21:00,
2013-09-01 14:26:00,76.2,74.0,29.88,SSE,157,5.1,12.0,95,0.00,,,0.00,Rainwise IP-100,2013-09-01 18:26:00,
2013-09-01 14:31:00,76.1,74.0,29.88,SSW,202,4.4,11.0,95,0.00,,,0.00,Rainwise IP-100,2013-09-01 18:31:00,
2013-09-01 14:36:00,75.9,74.0,29.88,SSE,157,3.5,14.0,95,0.00,,,0.00,Rainwise IP-100,2013-09-01 18:36:00,
2013-09-01 14:41:00,75.7,74.0,29.88,WSW,247,4.9,11.0,95,0.00,,,0.00,Rainwise IP-100,2013-09-01 18:41:00,
2013-09-01 14:46:00,75.5,74.0,29.88,SSW,202,6.5,15.0,95,0.00,,,0.00,Rainwise IP-100,2013-09-01 18:46:00,
2013-09-01 14:51:00,75.4,74.0,29.89,South,180,6.1,12.0,95,0.00,,,0.00,Rainwise IP-100,2013-09-01 18:51:00,
2013-09-01 14:56:00,75.3,73.0,29.89,WSW,247,7.2,15.0,95,0.00,,,0.00,Rainwise IP-100,2013-09-01 18:56:00,
2013-09-01 15:01:00,75.3,73.0,29.88,SSW,202,11.2,11.2,96,0.00,,,0.00,Rainwise IP-100,2013-09-01 19:01:00,
2013-09-01 15:06:00,75.5,74.0,29.89,SSW,202,7.9,11.0,96,0.00,,,0.00,Rainwise IP-100,2013-09-01 19:06:00,
2013-09-01 15:11:00,75.6,74.0,29.88,SSW,202,6.8,12.0,95,0.00,,,0.00,Rainwise IP-100,2013-09-01 19:11:00,
2013-09-01 15:16:00,75.6,74.0,29.89,SSE,157,4.0,9.0,95,0.00,,,0.00,Rainwise IP-100,2013-09-01 19:16:00,
2013-09-01 15:21:00,75.7,74.0,29.89,SSE,157,1.6,10.0,95,0.00,,,0.00,Rainwise IP-100,2013-09-01 19:21:00,
2013-09-01 15:26:00,75.7,74.0,29.88,SSW,202,5.8,11.0,95,0.00,,,0.00,Rainwise IP-100,2013-09-01 19:26:00,
2013-09-01 15:31:00,75.7,74.0,29.88,SSW,202,4.2,9.0,95,0.00,,,0.00,Rainwise IP-100,2013-09-01 19:31:00,
2013-09-01 15:36:00,75.8,74.0,29.88,SSE,157,5.6,13.0,95,0.00,,,0.00,Rainwise IP-100,2013-09-01 19:36:00,
2013-09-01 15:41:00,75.9,74.0,29.88,SSE,157,5.8,13.0,95,0.00,,,0.00,Rainwise IP-100,2013-09-01 19:41:00,
2013-09-01 15:46:00,75.9,74.0,29.88,SSE,157,3.0,10.0,95,0.00,,,0.00,Rainwise IP-100,2013-09-01 19:46:00,
2013-09-01 15:51:00,75.8,73.0,29.88,SSW,202,3.3,9.0,94,0.00,,,0.00,Rainwise IP-100,2013-09-01 19:51:00,
2013-09-01 15:56:00,75.6,73.0,29.88,South,180,1.4,9.0,94,0.00,,,0.00,Rainwise IP-100,2013-09-01 19:56:00,
2013-09-01 16:01:00,75.4,73.0,29.87,WSW,247,1.4,11.0,94,0.00,,,0.00,Rainwise IP-100,2013-09-01 20:01:00,
2013-09-01 16:06:00,75.2,73.0,29.88,South,180,2.3,8.0,95,0.00,,,0.00,Rainwise IP-100,2013-09-01 20:06:00,
2013-09-01 16:11:00,75.1,73.0,29.88,SW,225,3.3,8.0,95,0.00,,,0.00,Rainwise IP-100,2013-09-01 20:11:00,
2013-09-01 16:16:00,75.0,73.0,29.87,South,180,4.7,10.0,95,0.00,,,0.00,Rainwise IP-100,2013-09-01 20:16:00,
2013-09-01 16:21:00,74.9,73.0,29.88,SSE,157,3.7,13.0,95,0.00,,,0.00,Rainwise IP-100,2013-09-01 20:21:00,
2013-09-01 16:26:00,74.9,73.0,29.88,NNW,337,2.8,14.0,96,0.00,,,0.00,Rainwise IP-100,2013-09-01 20:26:00,
2013-09-01 16:31:00,74.8,73.0,29.88,SSE,157,3.7,6.0,96,0.00,,,0.00,Rainwise IP-100,2013-09-01 20:31:00,
2013-09-01 16:36:00,74.7,73.0,29.89,SW,225,5.4,11.0,96,0.00,,,0.00,Rainwise IP-100,2013-09-01 20:36:00,
2013-09-01 16:41:00,74.7,73.0,29.88,NNW,337,0.0,8.0,96,0.00,,,0.00,Rainwise IP-100,2013-09-01 20:41:00,
2013-09-01 16:46:00,74.7,73.0,29.88,SW,225,3.5,10.0,96,0.00,,,0.00,Rainwise IP-100,2013-09-01 20:46:00,
2013-09-01 16:51:00,74.7,73.0,29.88,SSW,202,7.2,8.0,96,0.00,,,0.00,Rainwise IP-100,2013-09-01 20:51:00,
2013-09-01 16:56:00,74.6,73.0,29.88,SSW,202,5.4,9.0,96,0.00,,,0.00,Rainwise IP-100,2013-09-01 20:56:00,
2013-09-01 17:01:00,74.6,73.0,29.88,SSW,202,3.5,9.0,96,0.00,,,0.00,Rainwise IP-100,2013-09-01 21:01:00,
2013-09-01 17:06:00,74.6,73.0,29.88,WSW,247,2.1,8.0,96,0.00,,,0.00,Rainwise IP-100,2013-09-01 21:06:00,
2013-09-01 17:11:00,74.5,73.0,29.88,SW,225,2.3,9.0,96,0.00,,,0.00,Rainwise IP-100,2013-09-01 21:11:00,
2013-09-01 17:16:00,74.3,73.0,29.88,SW,225,4.4,10.0,96,0.00,,,0.00,Rainwise IP-100,2013-09-01 21:16:00,
2013-09-01 17:21:00,74.3,73.0,29.88,WSW,247,2.6,9.0,96,0.00,,,0.00,Rainwise IP-100,2013-09-01 21:21:00,
2013-09-01 17:26:00,74.3,73.0,29.87,South,180,5.8,7.0,96,0.00,,,0.00,Rainwise IP-100,2013-09-01 21:26:00,
2013-09-01 17:31:00,74.3,73.0,29.88,WSW,247,5.1,7.0,96,0.00,,,0.00,Rainwise IP-100,2013-09-01 21:31:00,
2013-09-01 17:36:00,74.3,73.0,29.88,South,180,1.9,7.0,96,0.00,,,0.00,Rainwise IP-100,2013-09-01 21:36:00,
2013-09-01 17:41:00,74.3,73.0,29.88,SW,225,2.6,7.0,96,0.00,,,0.00,Rainwise IP-100,2013-09-01 21:41:00,
2013-09-01 17:46:00,74.3,73.0,29.89,SSW,202,2.8,7.0,96,0.00,,,0.00,Rainwise IP-100,2013-09-01 21:46:00,
2013-09-01 17:51:00,74.3,73.0,29.89,SW,225,2.6,8.0,96,0.00,,,0.00,Rainwise IP-100,2013-09-01 21:51:00,
2013-09-01 17:56:00,74.3,73.0,29.89,SW,225,2.1,11.0,96,0.00,,,0.00,Rainwise IP-100,2013-09-01 21:56:00,
2013-09-01 18:01:00,74.3,73.0,29.89,SSW,202,2.8,7.0,96,0.00,,,0.00,Rainwise IP-100,2013-09-01 22:01:00,
2013-09-01 18:06:00,74.3,73.0,29.88,WSW,247,5.1,7.0,97,0.00,,,0.00,Rainwise IP-100,2013-09-01 22:06:00,
2013-09-01 18:11:00,74.3,73.0,29.88,SSW,202,0.0,9.0,97,0.00,,,0.00,Rainwise IP-100,2013-09-01 22:11:00,
2013-09-01 18:16:00,74.3,73.0,29.88,SW,225,1.6,7.0,97,0.00,,,0.00,Rainwise IP-100,2013-09-01 22:16:00,
2013-09-01 18:21:00,74.3,73.0,29.89,SW,225,4.0,6.0,97,0.00,,,0.00,Rainwise IP-100,2013-09-01 22:21:00,
2013-09-01 18:26:00,74.3,73.0,29.88,SSE,157,3.7,7.0,97,0.00,,,0.00,Rainwise IP-100,2013-09-01 22:26:00,
2013-09-01 18:31:00,74.3,73.0,29.88,SSW,202,0.0,7.0,97,0.00,,,0.00,Rainwise IP-100,2013-09-01 22:31:00,
2013-09-01 18:36:00,74.3,73.0,29.88,West,270,2.3,7.0,97,0.00,,,0.00,Rainwise IP-100,2013-09-01 22:36:00,
2013-09-01 18:41:00,74.2,73.0,29.88,SW,225,1.4,7.0,97,0.00,,,0.00,Rainwise IP-100,2013-09-01 22:41:00,
2013-09-01 18:46:00,74.2,73.0,29.88,SW,225,3.7,5.0,97,0.00,,,0.00,Rainwise IP-100,2013-09-01 22:46:00,
2013-09-01 18:51:00,74.1,73.0,29.89,SSE,157,3.5,9.0,97,0.00,,,0.00,Rainwise IP-100,2013-09-01 22:51:00,
2013-09-01 18:56:00,74.1,73.0,29.89,SSW,202,1.9,8.0,97,0.00,,,0.00,Rainwise IP-100,2013-09-01 22:56:00,
2013-09-01 19:01:00,74.1,73.0,29.89,SSW,202,2.1,4.0,97,0.00,,,0.00,Rainwise IP-100,2013-09-01 23:01:00,
2013-09-01 19:06:00,74.0,73.0,29.88,South,180,1.9,6.0,97,0.00,,,0.00,Rainwise IP-100,2013-09-01 23:06:00,
2013-09-01 19:11:00,74.0,73.0,29.89,SSW,202,3.0,7.0,97,0.00,,,0.00,Rainwise IP-100,2013-09-01 23:11:00,
2013-09-01 19:16:00,73.8,72.0,29.88,SSE,157,2.8,7.0,97,0.00,,,0.00,Rainwise IP-100,2013-09-01 23:16:00,
2013-09-01 19:21:00,73.7,72.0,29.88,SSE,157,2.3,5.0,97,0.00,,,0.00,Rainwise IP-100,2013-09-01 23:21:00,
2013-09-01 19:26:00,73.6,72.0,29.88,South,180,3.7,8.0,97,0.00,,,0.00,Rainwise IP-100,2013-09-01 23:26:00,
2013-09-01 19:31:00,73.6,72.0,29.88,SSE,157,5.8,7.0,97,0.00,,,0.00,Rainwise IP-100,2013-09-01 23:31:00,
2013-09-01 19:36:00,73.6,72.0,29.88,SSW,202,0.0,7.0,97,0.00,,,0.00,Rainwise IP-100,2013-09-01 23:36:00,
2013-09-01 19:41:00,73.5,72.0,29.89,SSE,157,3.0,6.0,97,0.00,,,0.00,Rainwise IP-100,2013-09-01 23:41:00,
2013-09-01 19:46:00,73.4,72.0,29.88,South,180,6.3,6.3,97,0.00,,,0.00,Rainwise IP-100,2013-09-01 23:46:00,
2013-09-01 19:51:00,73.3,72.0,29.88,SE,135,4.0,7.0,97,0.00,,,0.00,Rainwise IP-100,2013-09-01 23:51:00,
2013-09-01 19:56:00,73.2,72.0,29.88,SSE,157,2.3,7.0,98,0.00,,,0.00,Rainwise IP-100,2013-09-01 23:56:00,
2013-09-01 20:01:00,73.0,72.0,29.89,SSE,157,4.7,5.0,98,0.00,,,0.00,Rainwise IP-100,2013-09-02 00:01:00,
2013-09-01 20:06:00,72.8,72.0,29.89,South,180,2.1,6.0,98,0.00,,,0.00,Rainwise IP-100,2013-09-02 00:06:00,
2013-09-01 20:11:00,72.8,72.0,29.89,SE,135,4.4,7.0,98,0.00,,,0.00,Rainwise IP-100,2013-09-02 00:11:00,
2013-09-01 20:16:00,72.7,72.0,29.89,SSE,157,6.1,6.1,98,0.00,,,0.00,Rainwise IP-100,2013-09-02 00:16:00,
2013-09-01 20:21:00,72.6,72.0,29.89,SSE,157,6.8,6.8,98,0.00,,,0.00,Rainwise IP-100,2013-09-02 00:21:00,
2013-09-01 20:26:00,72.5,72.0,29.89,SE,135,0.0,9.0,98,0.00,,,0.00,Rainwise IP-100,2013-09-02 00:26:00,
2013-09-01 20:31:00,72.4,71.0,29.89,SSE,157,1.6,6.0,98,0.00,,,0.00,Rainwise IP-100,2013-09-02 00:31:00,
2013-09-01 20:36:00,72.4,71.0,29.89,SSE,157,2.8,8.0,98,0.00,,,0.00,Rainwise IP-100,2013-09-02 00:36:00,
2013-09-01 20:41:00,72.4,72.0,29.89,ESE,112,2.6,7.0,99,0.00,,,0.00,Rainwise IP-100,2013-09-02 00:41:00,
2013-09-01 20:46:00,72.4,72.0,29.89,SSE,157,2.8,8.0,99,0.00,,,0.00,Rainwise IP-100,2013-09-02 00:46:00,
2013-09-01 20:51:00,72.3,72.0,29.89,SSE,157,5.8,7.0,99,0.00,,,0.00,Rainwise IP-100,2013-09-02 00:51:00,
2013-09-01 20:56:00,72.3,72.0,29.90,SSE,157,2.3,8.0,99,0.00,,,0.00,Rainwise IP-100,2013-09-02 00:56:00,
2013-09-01 21:01:00,72.2,72.0,29.90,SSE,157,2.8,8.0,99,0.00,,,0.00,Rainwise IP-100,2013-09-02 01:01:00,
2013-09-01 21:06:00,72.1,71.0,29.90,East,90,2.8,7.0,99,0.00,,,0.00,Rainwise IP-100,2013-09-02 01:06:00,
2013-09-01 21:11:00,72.1,71.0,29.89,SE,135,4.2,7.0,99,0.00,,,0.00,Rainwise IP-100,2013-09-02 01:11:00,
2013-09-01 21:16:00,72.1,71.0,29.90,ESE,112,6.3,7.0,99,0.00,,,0.00,Rainwise IP-100,2013-09-02 01:16:00,
2013-09-01 21:21:00,72.1,71.0,29.90,SSE,157,4.7,9.0,99,0.00,,,0.00,Rainwise IP-100,2013-09-02 01:21:00,
2013-09-01 21:26:00,72.1,71.0,29.90,SSE,157,3.5,7.0,99,0.00,,,0.00,Rainwise IP-100,2013-09-02 01:26:00,
2013-09-01 21:31:00,72.1,71.0,29.90,SSE,157,4.0,7.0,99,0.00,,,0.00,Rainwise IP-100,2013-09-02 01:31:00,
2013-09-01 21:36:00,72.2,72.0,29.90,SSE,157,1.4,7.0,99,0.00,,,0.00,Rainwise IP-100,2013-09-02 01:36:00,
2013-09-01 21:41:00,72.2,72.0,29.90,SSE,157,2.3,10.0,99,0.00,,,0.00,Rainwise IP-100,2013-09-02 01:41:00,
2013-09-01 21:46:00,72.3,72.0,29.90,SSE,157,5.1,9.0,99,0.00,,,0.00,Rainwise IP-100,2013-09-02 01:46:00,
2013-09-01 21:51:00,72.3,72.0,29.90,SSE,157,2.8,8.0,100,0.00,,,0.00,Rainwise IP-100,2013-09-02 01:51:00,
2013-09-01 21:56:00,72.4,72.0,29.89,SE,135,1.4,7.0,100,0.00,,,0.00,Rainwise IP-100,2013-09-02 01:56:00,
2013-09-01 22:01:00,72.4,72.0,29.89,SSE,157,4.9,10.0,100,0.00,,,0.00,Rainwise IP-100,2013-09-02 02:01:00,
2013-09-01 22:06:00,72.4,72.0,29.89,SSE,157,3.0,9.0,100,0.00,,,0.00,Rainwise IP-100,2013-09-02 02:06:00,
2013-09-01 22:11:00,72.3,72.0,29.89,ESE,112,2.3,9.0,100,0.00,,,0.00,Rainwise IP-100,2013-09-02 02:11:00,
2013-09-01 22:16:00,72.3,72.0,29.89,SE,135,4.7,11.0,100,0.00,,,0.00,Rainwise IP-100,2013-09-02 02:16:00,
2013-09-01 22:21:00,72.4,72.0,29.89,ESE,112,7.7,7.7,100,0.00,,,0.00,Rainwise IP-100,2013-09-02 02:21:00,
2013-09-01 22:26:00,72.5,72.0,29.90,SSE,157,5.4,9.0,100,0.00,,,0.00,Rainwise IP-100,2013-09-02 02:26:00,
2013-09-01 22:31:00,72.5,72.0,29.89,South,180,3.3,9.0,100,0.00,,,0.00,Rainwise IP-100,2013-09-02 02:31:00,
2013-09-01 22:36:00,72.6,72.0,29.89,SSE,157,2.8,7.0,100,0.00,,,0.00,Rainwise IP-100,2013-09-02 02:36:00,
2013-09-01 22:41:00,72.5,72.0,29.90,SSE,157,4.0,7.0,100,0.00,,,0.00,Rainwise IP-100,2013-09-02 02:41:00,
2013-09-01 22:46:00,72.5,72.0,29.89,SSE,157,2.6,7.0,100,0.00,,,0.00,Rainwise IP-100,2013-09-02 02:46:00,
2013-09-01 22:51:00,72.5,72.0,29.90,SE,135,2.3,8.0,100,0.00,,,0.00,Rainwise IP-100,2013-09-02 02:51:00,
2013-09-01 22:56:00,72.5,72.0,29.90,SSE,157,4.4,6.0,100,0.00,,,0.00,Rainwise IP-100,2013-09-02 02:56:00,
2013-09-01 23:01:00,72.6,72.0,29.90,SSE,157,4.4,7.0,100,0.00,,,0.00,Rainwise IP-100,2013-09-02 03:01:00,
2013-09-01 23:06:00,72.7,72.0,29.90,SSE,157,2.1,9.0,100,0.00,,,0.00,Rainwise IP-100,2013-09-02 03:06:00,
2013-09-01 23:11:00,72.7,72.0,29.90,SE,135,0.0,7.0,100,0.00,,,0.00,Rainwise IP-100,2013-09-02 03:11:00,
2013-09-01 23:16:00,72.8,72.0,29.89,SE,135,1.6,7.0,100,0.00,,,0.00,Rainwise IP-100,2013-09-02 03:16:00,
2013-09-01 23:21:00,72.8,72.0,29.89,SSW,202,1.4,7.0,100,0.00,,,0.00,Rainwise IP-100,2013-09-02 03:21:00,
2013-09-01 23:26:00,72.9,73.0,29.89,SSW,202,4.2,5.0,100,0.00,,,0.00,Rainwise IP-100,2013-09-02 03:26:00,
2013-09-01 23:31:00,72.9,73.0,29.89,SE,135,1.2,4.0,100,0.00,,,0.00,Rainwise IP-100,2013-09-02 03:31:00,
2013-09-01 23:36:00,72.9,73.0,29.89,SSE,157,1.2,8.0,100,0.00,,,0.00,Rainwise IP-100,2013-09-02 03:36:00,
2013-09-01 23:41:00,73.0,73.0,29.89,SSE,157,3.0,5.0,100,0.00,,,0.00,Rainwise IP-100,2013-09-02 03:41:00,
2013-09-01 23:46:00,73.0,73.0,29.89,SSE,157,2.6,7.0,100,0.00,,,0.00,Rainwise IP-100,2013-09-02 03:46:00,
2013-09-01 23:51:00,73.1,73.0,29.89,SSE,157,2.1,7.0,100,0.00,,,0.00,Rainwise IP-100,2013-09-02 03:51:00,
2013-09-01 23:56:00,73.2,73.0,29.89,SSE,157,2.1,7.0,100,0.00,,,0.00,Rainwise IP-100,2013-09-02 03:56:00,